Year,Month,Day,Hour,Minute,Value (Times are PST for temperature in C)
2015,07,22,00,00,17.30
2015,07,22,00,01,17.30
2015,07,22,00,02,17.30
2015,07,22,00,03,17.30
2015,07,22,00,04,17.20
2015,07,22,00,05,17.20
2015,07,22,00,06,17.20
2015,07,22,00,07,17.20
2015,07,22,00,08,17.20
2015,07,22,00,09,17.20
2015,07,22,00,10,17.20
2015,07,22,00,11,17.20
2015,07,22,00,12,17.20
2015,07,22,00,13,17.10
2015,07,22,00,14,17.10
2015,07,22,00,15,17.10
2015,07,22,00,16,17.10
2015,07,22,00,17,17.00
2015,07,22,00,18,17.00
2015,07,22,00,19,17.00
2015,07,22,00,20,17.00
2015,07,22,00,21,17.00
2015,07,22,00,22,16.90
2015,07,22,00,23,16.90
2015,07,22,00,24,16.90
2015,07,22,00,25,16.90
2015,07,22,00,26,16.90
2015,07,22,00,27,16.80
2015,07,22,00,28,16.80
2015,07,22,00,29,16.80
2015,07,22,00,30,16.70
2015,07,22,00,31,16.70
2015,07,22,00,32,16.70
2015,07,22,00,33,16.70
2015,07,22,00,34,16.60
2015,07,22,00,35,16.60
2015,07,22,00,36,16.50
2015,07,22,00,37,16.50
2015,07,22,00,38,16.50
2015,07,22,00,39,16.40
2015,07,22,00,40,16.40
2015,07,22,00,41,16.30
2015,07,22,00,42,16.30
2015,07,22,00,43,16.30
2015,07,22,00,44,16.20
2015,07,22,00,45,16.20
2015,07,22,00,46,16.20
2015,07,22,00,47,16.20
2015,07,22,00,48,16.10
2015,07,22,00,49,16.10
2015,07,22,00,50,16.10
2015,07,22,00,51,16.00
2015,07,22,00,52,16.00
2015,07,22,00,53,15.90
2015,07,22,00,54,15.90
2015,07,22,00,55,15.90
2015,07,22,00,56,15.90
2015,07,22,00,57,15.80
2015,07,22,00,58,15.80
2015,07,22,00,59,15.80
2015,07,22,01,00,15.80
2015,07,22,01,01,15.80
2015,07,22,01,02,15.80
2015,07,22,01,03,15.80
2015,07,22,01,04,15.80
2015,07,22,01,05,15.80
2015,07,22,01,06,15.80
2015,07,22,01,07,15.70
2015,07,22,01,08,15.70
2015,07,22,01,09,15.70
2015,07,22,01,10,15.70
2015,07,22,01,11,15.60
2015,07,22,01,12,15.60
2015,07,22,01,13,15.60
2015,07,22,01,14,15.60
2015,07,22,01,15,15.60
2015,07,22,01,16,15.60
2015,07,22,01,17,15.60
2015,07,22,01,18,15.50
2015,07,22,01,19,15.50
2015,07,22,01,20,15.50
2015,07,22,01,21,15.40
2015,07,22,01,22,15.40
2015,07,22,01,23,15.40
2015,07,22,01,24,15.30
2015,07,22,01,25,15.30
2015,07,22,01,26,15.30
2015,07,22,01,27,15.30
2015,07,22,01,28,15.20
2015,07,22,01,29,15.20
2015,07,22,01,30,15.10
2015,07,22,01,31,15.10
2015,07,22,01,32,15.00
2015,07,22,01,33,15.00
2015,07,22,01,34,15.00
2015,07,22,01,35,14.90
2015,07,22,01,36,14.90
2015,07,22,01,37,14.90
2015,07,22,01,38,14.80
2015,07,22,01,39,14.80
2015,07,22,01,40,14.70
2015,07,22,01,41,14.70
2015,07,22,01,42,14.70
2015,07,22,01,43,14.70
2015,07,22,01,44,14.60
2015,07,22,01,45,14.60
2015,07,22,01,46,14.50
2015,07,22,01,47,14.50
2015,07,22,01,48,14.40
2015,07,22,01,49,14.40
2015,07,22,01,50,14.40
2015,07,22,01,51,14.30
2015,07,22,01,52,14.30
2015,07,22,01,53,14.30
2015,07,22,01,54,14.30
2015,07,22,01,55,14.20
2015,07,22,01,56,14.20
2015,07,22,01,57,14.20
2015,07,22,01,58,14.20
2015,07,22,01,59,14.20
2015,07,22,02,00,14.20
2015,07,22,02,01,14.20
2015,07,22,02,02,14.20
2015,07,22,02,03,14.20
2015,07,22,02,04,14.20
2015,07,22,02,05,14.20
2015,07,22,02,06,14.20
2015,07,22,02,07,14.20
2015,07,22,02,08,14.20
2015,07,22,02,09,14.20
2015,07,22,02,10,14.10
2015,07,22,02,11,14.10
2015,07,22,02,12,14.10
2015,07,22,02,13,14.10
2015,07,22,02,14,14.10
2015,07,22,02,15,14.10
2015,07,22,02,16,14.10
2015,07,22,02,17,14.10
2015,07,22,02,18,14.10
2015,07,22,02,19,14.10
2015,07,22,02,20,14.10
2015,07,22,02,21,14.10
2015,07,22,02,22,14.10
2015,07,22,02,23,14.10
2015,07,22,02,24,14.10
2015,07,22,02,25,14.00
2015,07,22,02,26,14.00
2015,07,22,02,27,14.00
2015,07,22,02,28,14.00
2015,07,22,02,29,14.00
2015,07,22,02,30,14.00
2015,07,22,02,31,13.90
2015,07,22,02,32,13.90
2015,07,22,02,33,13.90
2015,07,22,02,34,13.90
2015,07,22,02,35,13.80
2015,07,22,02,36,13.80
2015,07,22,02,37,13.80
2015,07,22,02,38,13.80
2015,07,22,02,39,13.70
2015,07,22,02,40,13.70
2015,07,22,02,41,13.70
2015,07,22,02,42,13.70
2015,07,22,02,43,13.70
2015,07,22,02,44,13.60
2015,07,22,02,45,13.60
2015,07,22,02,46,13.60
2015,07,22,02,47,13.60
2015,07,22,02,48,13.60
2015,07,22,02,49,13.60
2015,07,22,02,50,13.60
2015,07,22,02,51,13.60
2015,07,22,02,52,13.50
2015,07,22,02,53,13.50
2015,07,22,02,54,13.50
2015,07,22,02,55,13.50
2015,07,22,02,56,13.40
2015,07,22,02,57,13.40
2015,07,22,02,58,13.40
2015,07,22,02,59,13.40
2015,07,22,03,00,13.30
2015,07,22,03,01,13.30
2015,07,22,03,02,13.30
2015,07,22,03,03,13.30
2015,07,22,03,04,13.30
2015,07,22,03,05,13.20
2015,07,22,03,06,13.20
2015,07,22,03,07,13.20
2015,07,22,03,08,13.20
2015,07,22,03,09,13.20
2015,07,22,03,10,13.20
2015,07,22,03,11,13.20
2015,07,22,03,12,13.20
2015,07,22,03,13,13.20
2015,07,22,03,14,13.20
2015,07,22,03,15,13.20
2015,07,22,03,16,13.20
2015,07,22,03,17,13.20
2015,07,22,03,18,13.20
2015,07,22,03,19,13.20
2015,07,22,03,20,13.10
2015,07,22,03,21,13.10
2015,07,22,03,22,13.10
2015,07,22,03,23,13.00
2015,07,22,03,24,13.00
2015,07,22,03,25,13.00
2015,07,22,03,26,12.90
2015,07,22,03,27,12.90
2015,07,22,03,28,12.90
2015,07,22,03,29,12.90
2015,07,22,03,30,12.90
2015,07,22,03,31,12.90
2015,07,22,03,32,12.80
2015,07,22,03,33,12.80
2015,07,22,03,34,12.80
2015,07,22,03,35,12.80
2015,07,22,03,36,12.80
2015,07,22,03,37,12.80
2015,07,22,03,38,12.80
2015,07,22,03,39,12.80
2015,07,22,03,40,12.70
2015,07,22,03,41,12.70
2015,07,22,03,42,12.70
2015,07,22,03,43,12.70
2015,07,22,03,44,12.70
2015,07,22,03,45,12.70
2015,07,22,03,46,12.70
2015,07,22,03,47,12.70
2015,07,22,03,48,12.70
2015,07,22,03,49,12.60
2015,07,22,03,50,12.60
2015,07,22,03,51,12.60
2015,07,22,03,52,12.60
2015,07,22,03,53,12.60
2015,07,22,03,54,12.60
2015,07,22,03,55,12.50
2015,07,22,03,56,12.50
2015,07,22,03,57,12.60
2015,07,22,03,58,12.60
2015,07,22,03,59,12.60
2015,07,22,04,00,12.60
2015,07,22,04,01,12.60
2015,07,22,04,02,12.60
2015,07,22,04,03,12.60
2015,07,22,04,04,12.50
2015,07,22,04,05,12.50
2015,07,22,04,06,12.50
2015,07,22,04,07,12.40
2015,07,22,04,08,12.40
2015,07,22,04,09,12.40
2015,07,22,04,10,12.40
2015,07,22,04,11,12.40
2015,07,22,04,12,12.40
2015,07,22,04,13,12.40
2015,07,22,04,14,12.30
2015,07,22,04,15,12.30
2015,07,22,04,16,12.30
2015,07,22,04,17,12.30
2015,07,22,04,18,12.30
2015,07,22,04,19,12.30
2015,07,22,04,20,12.30
2015,07,22,04,21,12.30
2015,07,22,04,22,12.30
2015,07,22,04,23,12.20
2015,07,22,04,24,12.20
2015,07,22,04,25,12.20
2015,07,22,04,26,12.20
2015,07,22,04,27,12.20
2015,07,22,04,28,12.20
2015,07,22,04,29,12.20
2015,07,22,04,30,12.20
2015,07,22,04,31,12.20
2015,07,22,04,32,12.20
2015,07,22,04,33,12.20
2015,07,22,04,34,12.20
2015,07,22,04,35,12.20
2015,07,22,04,36,12.20
2015,07,22,04,37,12.20
2015,07,22,04,38,12.20
2015,07,22,04,39,12.20
2015,07,22,04,40,12.20
2015,07,22,04,41,12.20
2015,07,22,04,42,12.20
2015,07,22,04,43,12.20
2015,07,22,04,44,12.20
2015,07,22,04,45,12.10
2015,07,22,04,46,12.10
2015,07,22,04,47,12.10
2015,07,22,04,48,12.10
2015,07,22,04,49,12.10
2015,07,22,04,50,12.10
2015,07,22,04,51,12.10
2015,07,22,04,52,12.10
2015,07,22,04,53,12.00
2015,07,22,04,54,12.00
2015,07,22,04,55,12.10
2015,07,22,04,56,12.10
2015,07,22,04,57,12.10
2015,07,22,04,58,12.10
2015,07,22,04,59,12.10
2015,07,22,05,00,12.10
2015,07,22,05,01,12.10
2015,07,22,05,02,12.00
2015,07,22,05,03,12.00
2015,07,22,05,04,12.00
2015,07,22,05,05,12.00
2015,07,22,05,06,12.00
2015,07,22,05,07,12.00
2015,07,22,05,08,12.00
2015,07,22,05,09,11.90
2015,07,22,05,10,11.90
2015,07,22,05,11,11.90
2015,07,22,05,12,11.90
2015,07,22,05,13,11.90
2015,07,22,05,14,11.90
2015,07,22,05,15,11.90
2015,07,22,05,16,11.90
2015,07,22,05,17,11.90
2015,07,22,05,18,11.90
2015,07,22,05,19,11.90
2015,07,22,05,20,11.90
2015,07,22,05,21,11.90
2015,07,22,05,22,11.80
2015,07,22,05,23,11.90
2015,07,22,05,24,11.90
2015,07,22,05,25,11.90
2015,07,22,05,26,11.90
2015,07,22,05,27,11.90
2015,07,22,05,28,11.90
2015,07,22,05,29,11.90
2015,07,22,05,30,11.90
2015,07,22,05,31,11.90
2015,07,22,05,32,11.90
2015,07,22,05,33,11.90
2015,07,22,05,34,11.90
2015,07,22,05,35,11.90
2015,07,22,05,36,11.90
2015,07,22,05,37,11.90
2015,07,22,05,38,11.90
2015,07,22,05,39,12.00
2015,07,22,05,40,12.00
2015,07,22,05,41,12.00
2015,07,22,05,42,12.00
2015,07,22,05,43,12.00
2015,07,22,05,44,12.00
2015,07,22,05,45,12.00
2015,07,22,05,46,12.00
2015,07,22,05,47,12.00
2015,07,22,05,48,12.00
2015,07,22,05,49,12.00
2015,07,22,05,50,12.00
2015,07,22,05,51,11.90
2015,07,22,05,52,11.90
2015,07,22,05,53,11.90
2015,07,22,05,54,11.90
2015,07,22,05,55,11.90
2015,07,22,05,56,11.90
2015,07,22,05,57,11.90
2015,07,22,05,58,11.90
2015,07,22,05,59,11.90
2015,07,22,06,00,11.90
2015,07,22,06,01,11.90
2015,07,22,06,02,11.90
2015,07,22,06,03,11.90
2015,07,22,06,04,11.90
2015,07,22,06,05,11.90
2015,07,22,06,06,11.90
2015,07,22,06,07,11.90
2015,07,22,06,08,11.90
2015,07,22,06,09,11.90
2015,07,22,06,10,11.90
2015,07,22,06,11,11.90
2015,07,22,06,12,11.90
2015,07,22,06,13,11.90
2015,07,22,06,14,11.90
2015,07,22,06,15,11.90
2015,07,22,06,16,11.90
2015,07,22,06,17,11.80
2015,07,22,06,18,11.80
2015,07,22,06,19,11.80
2015,07,22,06,20,11.80
2015,07,22,06,21,11.80
2015,07,22,06,22,11.80
2015,07,22,06,23,11.80
2015,07,22,06,24,11.80
2015,07,22,06,25,11.80
2015,07,22,06,26,11.80
2015,07,22,06,27,11.80
2015,07,22,06,28,11.90
2015,07,22,06,29,11.90
2015,07,22,06,30,11.90
2015,07,22,06,31,11.90
2015,07,22,06,32,11.90
2015,07,22,06,33,11.90
2015,07,22,06,34,11.90
2015,07,22,06,35,11.90
2015,07,22,06,36,11.90
2015,07,22,06,37,11.90
2015,07,22,06,38,11.90
2015,07,22,06,39,11.90
2015,07,22,06,40,11.90
2015,07,22,06,41,12.00
2015,07,22,06,42,12.00
2015,07,22,06,43,12.00
2015,07,22,06,44,12.00
2015,07,22,06,45,12.00
2015,07,22,06,46,12.10
2015,07,22,06,47,12.10
2015,07,22,06,48,12.10
2015,07,22,06,49,12.10
2015,07,22,06,50,12.20
2015,07,22,06,51,12.20
2015,07,22,06,52,12.30
2015,07,22,06,53,12.30
2015,07,22,06,54,12.30
2015,07,22,06,55,12.40
2015,07,22,06,56,12.40
2015,07,22,06,57,12.50
2015,07,22,06,58,12.60
2015,07,22,06,59,12.60
2015,07,22,07,00,12.60
2015,07,22,07,01,12.70
2015,07,22,07,02,12.70
2015,07,22,07,03,12.80
2015,07,22,07,04,12.80
2015,07,22,07,05,12.90
2015,07,22,07,06,12.90
2015,07,22,07,07,13.00
2015,07,22,07,08,13.10
2015,07,22,07,09,13.20
2015,07,22,07,10,13.20
2015,07,22,07,11,13.30
2015,07,22,07,12,13.40
2015,07,22,07,13,13.40
2015,07,22,07,14,13.50
2015,07,22,07,15,13.60
2015,07,22,07,16,13.70
2015,07,22,07,17,13.70
2015,07,22,07,18,13.80
2015,07,22,07,19,13.90
2015,07,22,07,20,14.00
2015,07,22,07,21,14.00
2015,07,22,07,22,14.10
2015,07,22,07,23,14.20
2015,07,22,07,24,14.30
2015,07,22,07,25,14.30
2015,07,22,07,26,14.40
2015,07,22,07,27,14.50
2015,07,22,07,28,14.60
2015,07,22,07,29,14.60
2015,07,22,07,30,14.70
2015,07,22,07,31,14.70
2015,07,22,07,32,14.80
2015,07,22,07,33,14.90
2015,07,22,07,34,14.90
2015,07,22,07,35,15.00
2015,07,22,07,36,15.00
2015,07,22,07,37,15.10
2015,07,22,07,38,15.10
2015,07,22,07,39,15.20
2015,07,22,07,40,15.20
2015,07,22,07,41,15.30
2015,07,22,07,42,15.30
2015,07,22,07,43,15.30
2015,07,22,07,44,15.30
2015,07,22,07,45,15.30
2015,07,22,07,46,15.30
2015,07,22,07,47,15.20
2015,07,22,07,48,15.20
2015,07,22,07,49,15.20
2015,07,22,07,50,15.20
2015,07,22,07,51,15.10
2015,07,22,07,52,15.10
2015,07,22,07,53,15.10
2015,07,22,07,54,15.10
2015,07,22,07,55,15.10
2015,07,22,07,56,15.10
2015,07,22,07,57,15.10
2015,07,22,07,58,15.10
2015,07,22,07,59,15.10
2015,07,22,08,00,15.10
2015,07,22,08,01,15.10
2015,07,22,08,02,15.10
2015,07,22,08,03,15.10
2015,07,22,08,04,15.10
2015,07,22,08,05,15.20
2015,07,22,08,06,15.20
2015,07,22,08,07,15.20
2015,07,22,08,08,15.20
2015,07,22,08,09,15.20
2015,07,22,08,10,15.20
2015,07,22,08,11,15.20
2015,07,22,08,12,15.20
2015,07,22,08,13,15.20
2015,07,22,08,14,15.20
2015,07,22,08,15,15.20
2015,07,22,08,16,15.20
2015,07,22,08,17,15.30
2015,07,22,08,18,15.30
2015,07,22,08,19,15.30
2015,07,22,08,20,15.30
2015,07,22,08,21,15.30
2015,07,22,08,22,15.40
2015,07,22,08,23,15.40
2015,07,22,08,24,15.40
2015,07,22,08,25,15.50
2015,07,22,08,26,15.50
2015,07,22,08,27,15.50
2015,07,22,08,28,15.50
2015,07,22,08,29,15.50
2015,07,22,08,30,15.50
2015,07,22,08,31,15.50
2015,07,22,08,32,15.60
2015,07,22,08,33,15.50
2015,07,22,08,34,15.50
2015,07,22,08,35,15.50
2015,07,22,08,36,15.60
2015,07,22,08,37,15.60
2015,07,22,08,38,15.60
2015,07,22,08,39,15.60
2015,07,22,08,40,15.60
2015,07,22,08,41,15.70
2015,07,22,08,42,15.70
2015,07,22,08,43,15.70
2015,07,22,08,44,15.70
2015,07,22,08,45,15.70
2015,07,22,08,46,15.70
2015,07,22,08,47,15.80
2015,07,22,08,48,15.80
2015,07,22,08,49,15.80
2015,07,22,08,50,15.80
2015,07,22,08,51,15.80
2015,07,22,08,52,15.90
2015,07,22,08,53,15.90
2015,07,22,08,54,15.90
2015,07,22,08,55,15.90
2015,07,22,08,56,16.00
2015,07,22,08,57,16.00
2015,07,22,08,58,16.00
2015,07,22,08,59,16.00
2015,07,22,09,00,16.00
2015,07,22,09,01,16.00
2015,07,22,09,02,16.00
2015,07,22,09,03,16.00
2015,07,22,09,04,16.10
2015,07,22,09,05,16.10
2015,07,22,09,06,16.10
2015,07,22,09,07,16.10
2015,07,22,09,08,16.10
2015,07,22,09,09,16.10
2015,07,22,09,10,16.10
2015,07,22,09,11,16.10
2015,07,22,09,12,16.10
2015,07,22,09,13,16.10
2015,07,22,09,14,16.00
2015,07,22,09,15,16.00
2015,07,22,09,16,16.00
2015,07,22,09,17,16.00
2015,07,22,09,18,16.00
2015,07,22,09,19,16.00
2015,07,22,09,20,16.00
2015,07,22,09,21,16.00
2015,07,22,09,22,16.00
2015,07,22,09,23,16.00
2015,07,22,09,24,16.00
2015,07,22,09,25,16.00
2015,07,22,09,26,16.00
2015,07,22,09,27,16.00
2015,07,22,09,28,16.00
2015,07,22,09,29,15.90
2015,07,22,09,30,16.00
2015,07,22,09,31,16.00
2015,07,22,09,32,16.00
2015,07,22,09,33,16.00
2015,07,22,09,34,16.10
2015,07,22,09,35,16.10
2015,07,22,09,36,16.10
2015,07,22,09,37,16.10
2015,07,22,09,38,16.10
2015,07,22,09,39,16.10
2015,07,22,09,40,16.10
2015,07,22,09,41,16.10
2015,07,22,09,42,16.10
2015,07,22,09,43,16.10
2015,07,22,09,44,16.10
2015,07,22,09,45,16.10
2015,07,22,09,46,16.10
2015,07,22,09,47,16.10
2015,07,22,09,48,16.10
2015,07,22,09,49,16.10
2015,07,22,09,50,16.10
2015,07,22,09,51,16.10
2015,07,22,09,52,16.20
2015,07,22,09,53,16.20
2015,07,22,09,54,16.20
2015,07,22,09,55,16.20
2015,07,22,09,56,16.20
2015,07,22,09,57,16.20
2015,07,22,09,58,16.30
2015,07,22,09,59,16.30
2015,07,22,10,00,16.30
2015,07,22,10,01,16.30
2015,07,22,10,02,16.30
2015,07,22,10,03,16.30
2015,07,22,10,04,16.30
2015,07,22,10,05,16.30
2015,07,22,10,06,16.30
2015,07,22,10,07,16.40
2015,07,22,10,08,16.40
2015,07,22,10,09,16.40
2015,07,22,10,10,16.40
2015,07,22,10,11,16.40
2015,07,22,10,12,16.40
2015,07,22,10,13,16.40
2015,07,22,10,14,16.40
2015,07,22,10,15,16.40
2015,07,22,10,16,16.40
2015,07,22,10,17,16.40
2015,07,22,10,18,16.40
2015,07,22,10,19,16.40
2015,07,22,10,20,16.50
2015,07,22,10,21,16.50
2015,07,22,10,22,16.60
2015,07,22,10,23,16.60
2015,07,22,10,24,16.60
2015,07,22,10,25,16.60
2015,07,22,10,26,16.70
2015,07,22,10,27,16.70
2015,07,22,10,28,16.70
2015,07,22,10,29,16.70
2015,07,22,10,30,16.70
2015,07,22,10,31,16.70
2015,07,22,10,32,16.70
2015,07,22,10,33,16.70
2015,07,22,10,34,16.60
2015,07,22,10,35,16.60
2015,07,22,10,36,16.70
2015,07,22,10,37,16.70
2015,07,22,10,38,16.70
2015,07,22,10,39,16.70
2015,07,22,10,40,16.70
2015,07,22,10,41,16.80
2015,07,22,10,42,16.80
2015,07,22,10,43,16.90
2015,07,22,10,44,16.90
2015,07,22,10,45,17.00
2015,07,22,10,46,17.00
2015,07,22,10,47,17.10
2015,07,22,10,48,17.10
2015,07,22,10,49,17.10
2015,07,22,10,50,17.10
2015,07,22,10,51,17.10
2015,07,22,10,52,17.00
2015,07,22,10,53,17.00
2015,07,22,10,54,17.00
2015,07,22,10,55,17.00
2015,07,22,10,56,17.00
2015,07,22,10,57,17.00
2015,07,22,10,58,17.00
2015,07,22,10,59,17.00
2015,07,22,11,00,17.10
2015,07,22,11,01,17.10
2015,07,22,11,02,17.20
2015,07,22,11,03,17.20
2015,07,22,11,04,17.20
2015,07,22,11,05,17.20
2015,07,22,11,06,17.20
2015,07,22,11,07,17.20
2015,07,22,11,08,17.30
2015,07,22,11,09,17.30
2015,07,22,11,10,17.20
2015,07,22,11,11,17.20
2015,07,22,11,12,17.30
2015,07,22,11,13,17.30
2015,07,22,11,14,17.30
2015,07,22,11,15,17.30
2015,07,22,11,16,17.40
2015,07,22,11,17,17.40
2015,07,22,11,18,17.50
2015,07,22,11,19,17.50
2015,07,22,11,20,17.50
2015,07,22,11,21,17.60
2015,07,22,11,22,17.60
2015,07,22,11,23,17.60
2015,07,22,11,24,17.60
2015,07,22,11,25,17.50
2015,07,22,11,26,17.50
2015,07,22,11,27,17.60
2015,07,22,11,28,17.60
2015,07,22,11,29,17.60
2015,07,22,11,30,17.70
2015,07,22,11,31,17.70
2015,07,22,11,32,17.70
2015,07,22,11,33,17.80
2015,07,22,11,34,17.80
2015,07,22,11,35,17.90
2015,07,22,11,36,17.90
2015,07,22,11,37,18.00
2015,07,22,11,38,18.10
2015,07,22,11,39,18.10
2015,07,22,11,40,18.10
2015,07,22,11,41,18.10
2015,07,22,11,42,18.20
2015,07,22,11,43,18.20
2015,07,22,11,44,18.20
2015,07,22,11,45,18.30
2015,07,22,11,46,18.30
2015,07,22,11,47,18.30
2015,07,22,11,48,18.30
2015,07,22,11,49,18.30
2015,07,22,11,50,18.40
2015,07,22,11,51,18.40
2015,07,22,11,52,18.50
2015,07,22,11,53,18.50
2015,07,22,11,54,18.60
2015,07,22,11,55,18.60
2015,07,22,11,56,18.70
2015,07,22,11,57,18.80
2015,07,22,11,58,18.80
2015,07,22,11,59,18.80
2015,07,22,12,00,18.80
2015,07,22,12,01,18.70
2015,07,22,12,02,18.70
2015,07,22,12,03,18.70
2015,07,22,12,04,18.80
2015,07,22,12,05,18.80
2015,07,22,12,06,18.80
2015,07,22,12,07,18.80
2015,07,22,12,08,18.80
2015,07,22,12,09,18.90
2015,07,22,12,10,18.90
2015,07,22,12,11,18.90
2015,07,22,12,12,18.90
2015,07,22,12,13,18.90
2015,07,22,12,14,18.80
2015,07,22,12,15,18.80
2015,07,22,12,16,18.70
2015,07,22,12,17,18.70
2015,07,22,12,18,18.60
2015,07,22,12,19,18.70
2015,07,22,12,20,18.70
2015,07,22,12,21,18.80
2015,07,22,12,22,18.80
2015,07,22,12,23,18.90
2015,07,22,12,24,18.90
2015,07,22,12,25,18.90
2015,07,22,12,26,18.90
2015,07,22,12,27,19.00
2015,07,22,12,28,18.90
2015,07,22,12,29,18.90
2015,07,22,12,30,18.80
2015,07,22,12,31,18.80
2015,07,22,12,32,18.80
2015,07,22,12,33,18.80
2015,07,22,12,34,18.80
2015,07,22,12,35,18.90
2015,07,22,12,36,18.90
2015,07,22,12,37,19.00
2015,07,22,12,38,19.00
2015,07,22,12,39,19.10
2015,07,22,12,40,19.10
2015,07,22,12,41,19.10
2015,07,22,12,42,19.20
2015,07,22,12,43,19.20
2015,07,22,12,44,19.10
2015,07,22,12,45,19.10
2015,07,22,12,46,19.00
2015,07,22,12,47,19.00
2015,07,22,12,48,19.00
2015,07,22,12,49,18.90
2015,07,22,12,50,18.90
2015,07,22,12,51,18.90
2015,07,22,12,52,18.90
2015,07,22,12,53,18.90
2015,07,22,12,54,18.90
2015,07,22,12,55,18.90
2015,07,22,12,56,19.00
2015,07,22,12,57,19.00
2015,07,22,12,58,19.10
2015,07,22,12,59,19.10
2015,07,22,13,00,19.20
2015,07,22,13,01,19.20
2015,07,22,13,02,19.20
2015,07,22,13,03,19.20
2015,07,22,13,04,19.20
2015,07,22,13,05,19.20
2015,07,22,13,06,19.20
2015,07,22,13,07,19.20
2015,07,22,13,08,19.20
2015,07,22,13,09,19.10
2015,07,22,13,10,19.10
2015,07,22,13,11,19.10
2015,07,22,13,12,19.10
2015,07,22,13,13,19.10
2015,07,22,13,14,19.10
2015,07,22,13,15,19.00
2015,07,22,13,16,19.00
2015,07,22,13,17,19.00
2015,07,22,13,18,18.90
2015,07,22,13,19,18.90
2015,07,22,13,20,18.90
2015,07,22,13,21,18.90
2015,07,22,13,22,19.00
2015,07,22,13,23,19.00
2015,07,22,13,24,19.00
2015,07,22,13,25,18.90
2015,07,22,13,26,18.90
2015,07,22,13,27,18.90
2015,07,22,13,28,18.90
2015,07,22,13,29,18.90
2015,07,22,13,30,18.90
2015,07,22,13,31,19.00
2015,07,22,13,32,19.00
2015,07,22,13,33,19.00
2015,07,22,13,34,19.10
2015,07,22,13,35,19.10
2015,07,22,13,36,19.20
2015,07,22,13,37,19.20
2015,07,22,13,38,19.20
2015,07,22,13,39,19.20
2015,07,22,13,40,19.30
2015,07,22,13,41,19.30
2015,07,22,13,42,19.40
2015,07,22,13,43,19.50
2015,07,22,13,44,19.60
2015,07,22,13,45,19.70
2015,07,22,13,46,19.70
2015,07,22,13,47,19.70
2015,07,22,13,48,19.70
2015,07,22,13,49,19.70
2015,07,22,13,50,19.80
2015,07,22,13,51,19.80
2015,07,22,13,52,19.80
2015,07,22,13,53,19.80
2015,07,22,13,54,19.70
2015,07,22,13,55,19.70
2015,07,22,13,56,19.70
2015,07,22,13,57,19.60
2015,07,22,13,58,19.60
2015,07,22,13,59,19.60
2015,07,22,14,00,19.70
2015,07,22,14,01,19.80
2015,07,22,14,02,19.90
2015,07,22,14,03,19.90
2015,07,22,14,04,19.90
2015,07,22,14,05,19.90
2015,07,22,14,06,19.90
2015,07,22,14,07,19.90
2015,07,22,14,08,20.00
2015,07,22,14,09,20.00
2015,07,22,14,10,20.10
2015,07,22,14,11,20.10
2015,07,22,14,12,20.00
2015,07,22,14,13,20.00
2015,07,22,14,14,20.00
2015,07,22,14,15,19.90
2015,07,22,14,16,19.90
2015,07,22,14,17,19.90
2015,07,22,14,18,19.90
2015,07,22,14,19,19.90
2015,07,22,14,20,19.90
2015,07,22,14,21,19.90
2015,07,22,14,22,20.00
2015,07,22,14,23,20.10
2015,07,22,14,24,20.10
2015,07,22,14,25,20.10
2015,07,22,14,26,20.10
2015,07,22,14,27,20.20
2015,07,22,14,28,20.20
2015,07,22,14,29,20.10
2015,07,22,14,30,20.10
2015,07,22,14,31,20.10
2015,07,22,14,32,20.20
2015,07,22,14,33,20.30
2015,07,22,14,34,20.40
2015,07,22,14,35,20.40
2015,07,22,14,36,20.40
2015,07,22,14,37,20.40
2015,07,22,14,38,20.40
2015,07,22,14,39,20.40
2015,07,22,14,40,20.30
2015,07,22,14,41,20.30
2015,07,22,14,42,20.30
2015,07,22,14,43,20.30
2015,07,22,14,44,20.30
2015,07,22,14,45,20.30
2015,07,22,14,46,20.30
2015,07,22,14,47,20.30
2015,07,22,14,48,20.30
2015,07,22,14,49,20.30
2015,07,22,14,50,20.30
2015,07,22,14,51,20.30
2015,07,22,14,52,20.40
2015,07,22,14,53,20.40
2015,07,22,14,54,20.40
2015,07,22,14,55,20.40
2015,07,22,14,56,20.50
2015,07,22,14,57,20.40
2015,07,22,14,58,20.40
2015,07,22,14,59,20.30
2015,07,22,15,00,20.30
2015,07,22,15,01,20.20
2015,07,22,15,02,20.20
2015,07,22,15,03,20.20
2015,07,22,15,04,20.20
2015,07,22,15,05,20.20
2015,07,22,15,06,20.30
2015,07,22,15,07,20.40
2015,07,22,15,08,20.40
2015,07,22,15,09,20.50
2015,07,22,15,10,20.50
2015,07,22,15,11,20.50
2015,07,22,15,12,20.50
2015,07,22,15,13,20.50
2015,07,22,15,14,20.50
2015,07,22,15,15,20.60
2015,07,22,15,16,20.70
2015,07,22,15,17,20.80
2015,07,22,15,18,20.90
2015,07,22,15,19,21.00
2015,07,22,15,20,21.00
2015,07,22,15,21,21.00
2015,07,22,15,22,21.00
2015,07,22,15,23,21.00
2015,07,22,15,24,20.90
2015,07,22,15,25,20.80
2015,07,22,15,26,20.70
2015,07,22,15,27,20.70
2015,07,22,15,28,20.60
2015,07,22,15,29,20.50
2015,07,22,15,30,20.50
2015,07,22,15,31,20.40
2015,07,22,15,32,20.40
2015,07,22,15,33,20.30
2015,07,22,15,34,20.30
2015,07,22,15,35,20.30
2015,07,22,15,36,20.30
2015,07,22,15,37,20.20
2015,07,22,15,38,20.10
2015,07,22,15,39,20.00
2015,07,22,15,40,19.90
2015,07,22,15,41,19.80
2015,07,22,15,42,19.70
2015,07,22,15,43,19.70
2015,07,22,15,44,19.80
2015,07,22,15,45,19.70
2015,07,22,15,46,19.70
2015,07,22,15,47,19.70
2015,07,22,15,48,19.70
2015,07,22,15,49,19.70
2015,07,22,15,50,19.70
2015,07,22,15,51,19.80
2015,07,22,15,52,19.80
2015,07,22,15,53,19.80
2015,07,22,15,54,19.80
2015,07,22,15,55,19.80
2015,07,22,15,56,19.90
2015,07,22,15,57,19.90
2015,07,22,15,58,19.90
2015,07,22,15,59,19.90
2015,07,22,16,00,20.00
2015,07,22,16,01,20.00
2015,07,22,16,02,20.00
2015,07,22,16,03,20.10
2015,07,22,16,04,20.10
2015,07,22,16,05,20.10
2015,07,22,16,06,20.10
2015,07,22,16,07,20.00
2015,07,22,16,08,20.00
2015,07,22,16,09,19.90
2015,07,22,16,10,19.90
2015,07,22,16,11,19.80
2015,07,22,16,12,19.80
2015,07,22,16,13,19.80
2015,07,22,16,14,19.80
2015,07,22,16,15,19.90
2015,07,22,16,16,19.90
2015,07,22,16,17,19.90
2015,07,22,16,18,19.90
2015,07,22,16,19,19.90
2015,07,22,16,20,19.90
2015,07,22,16,21,19.90
2015,07,22,16,22,19.90
2015,07,22,16,23,19.90
2015,07,22,16,24,19.80
2015,07,22,16,25,19.80
2015,07,22,16,26,19.80
2015,07,22,16,27,19.80
2015,07,22,16,28,19.80
2015,07,22,16,29,19.80
2015,07,22,16,30,19.80
2015,07,22,16,31,19.80
2015,07,22,16,32,19.90
2015,07,22,16,33,19.90
2015,07,22,16,34,20.00
2015,07,22,16,35,20.00
2015,07,22,16,36,20.00
2015,07,22,16,37,20.00
2015,07,22,16,38,19.90
2015,07,22,16,39,19.90
2015,07,22,16,40,19.90
2015,07,22,16,41,19.90
2015,07,22,16,42,19.90
2015,07,22,16,43,19.90
2015,07,22,16,44,19.90
2015,07,22,16,45,19.90
2015,07,22,16,46,19.80
2015,07,22,16,47,19.80
2015,07,22,16,48,19.80
2015,07,22,16,49,19.80
2015,07,22,16,50,19.80
2015,07,22,16,51,19.90
2015,07,22,16,52,19.90
2015,07,22,16,53,20.00
2015,07,22,16,54,20.00
2015,07,22,16,55,20.10
2015,07,22,16,56,20.10
2015,07,22,16,57,20.10
2015,07,22,16,58,20.10
2015,07,22,16,59,20.20
2015,07,22,17,00,20.20
2015,07,22,17,01,20.20
2015,07,22,17,02,20.30
2015,07,22,17,03,20.40
2015,07,22,17,04,20.40
2015,07,22,17,05,20.40
2015,07,22,17,06,20.40
2015,07,22,17,07,20.40
2015,07,22,17,08,20.30
2015,07,22,17,09,20.30
2015,07,22,17,10,20.30
2015,07,22,17,11,20.20
2015,07,22,17,12,20.20
2015,07,22,17,13,20.10
2015,07,22,17,14,20.10
2015,07,22,17,15,20.10
2015,07,22,17,16,20.00
2015,07,22,17,17,20.00
2015,07,22,17,18,20.00
2015,07,22,17,19,19.90